Location: Blankensee
(53.5126°N, 14.3055°E)
Time: 18:31:10
(UTC+00:00)

Cosmos 1603 - Pass Details

Date: 08 August 2020
Orbit: 830 x 860 km, 71.0° (Epoch: 19 September)

Event Time Altitude Azimuth Distance (km) Brightness Sun altitude
Rises 02:23:14 0° 326° (NW) 3,449 7.0 -8.9°
Reaches altitude 10° 02:25:44 10° 323° (NW) 2,507 6.2 -8.7°
Maximum altitude 02:31:22 57° 246° (WSW) 1,002 3.8 -8.0°
Drops below altitude 10° 02:36:56 10° 169° (S) 2,478 5.9 -7.4°
Sets 02:39:24 0° 165° (SSE) 3,406 6.6 -7.1°
